Regional Weather Roundup
Issued by NWS

Home | Current Version | Previous Version | Text Only | Print | Product List | Glossary Off
Versions: 1 2 3 4 5 6 7 8 9 10 11 12 13 14 15 16 17 18 19 20 21 22 23 24 25 26 27 28 29 30 31 32 33 34 35 36 37 38 39 40 41 42 43 44 45 46 47 48 49 50

653
ASUS44 KLIX 021301
RWRLA
LOUISIANA WEATHER ROUNDUP
NATIONAL WEATHER SERVICE NEW ORLEANS LA
800 AM CDT TUE SEP 02 2014

NOTE: "FAIR" INDICATES FEW OR NO CLOUDS BELOW 12,000 FEET WITH NO
      SIGNIFICANT WEATHER AND/OR OBSTRUCTIONS TO VISIBILITY.
      SKY/WX - SKY CONDITION AND SIGNIFICANT WEATHER.
      TMP - AIR TEMPERATURE.    DP   - DEWPOINT TEMPERATURE.
      RH  - RELATIVE HUMIDITY.  PRES - PRESSURE.
      HX  - HEAT INDEX.         WCI  - WIND CHILL INDEX.

*  THESE STATIONS ARE NOT NWS OR FAA STATIONS AND ARE NOT UNDER
   NWS QUALITY CONTROL.

LAZ040-048-061>063-065-066-069-021400-
SOUTHEAST LOUISIANA

CITY           SKY/WX    TMP DP  RH WIND       PRES   REMARKS
N.O. AUDUBON   NOT AVBL
N.O. INTL ARPT PTSUNNY   81  77  88 SE5       30.06R
N.O. LAKEFRONT MOSUNNY   79  77  94 SE3       30.07R
N.O. DOWNTOWN* FAIR      81  73  78 SE3       30.07R
SLIDELL        LGT RAIN  79  74  84 CALM      30.06R
BATON ROUGE    SUNNY     78  76  93 CALM      30.05R
BOOTHVILLE     MOSUNNY   84  79  85 CALM      30.07R HX  96
BELLE CHASSE   PTSUNNY   80  76  87 CALM      30.06R
BOGALUSA*        N/A     76  73  90 CALM      30.08S
GALLIANO*      NOT AVBL
NEW ROADS*     FAIR      78  77  96 SE5       30.04R
GONZALES*        N/A     78  78 100 CALM      30.05R
HAMMOND*       NOT AVBL
HOUMA*         NOT AVBL
PORT FOURCHON* MOSUNNY   86  75  70 S6        30.07R HX  95

$$

LAZ041-044-053-054-021400-
SOUTHWEST LOUISIANA

CITY           SKY/WX    TMP DP  RH WIND       PRES   REMARKS
LAKE CHARLES   SUNNY     80  77  90 SE5       30.00R
LAFAYETTE      SUNNY     78  76  93 S3        30.03R
PATTERSON        N/A     81  79  94 E3        30.07R
SALT POINT       N/A     87  77  72 VRB3      30.03R HX  99
NEW IBERIA     SUNNY     79  77  94 SE3       30.03S
CHENAULT AIRPK NOT AVBL

$$

LAZ027-028-021400-
CENTRAL LOUISIANA

CITY           SKY/WX    TMP DP  RH WIND       PRES   REMARKS
FORT POLK      CLOUDY    77  76  96 SE6       30.01R
ALEXANDRIA INT FOG       76  76 100 SE7       30.00R VSB 1/2
ALEXANDRIA     CLOUDY    78  76  93 VRB3      30.02R

$$

LAZ001-002-021400-
NORTHWEST LOUISIANA

CITY           SKY/WX    TMP DP  RH WIND       PRES   REMARKS
SHREVEPORT     MOSUNNY   79  76  90 SE5       30.00R
BARKSDALE AFB  PTSUNNY   78  77  96 S8        30.00R
DTN SHREVEPORT CLOUDY    78  76  93 S3        30.00R

$$

LAZ014-016-021400-
NORTHEAST LOUISIANA

CITY           SKY/WX    TMP DP  RH WIND       PRES   REMARKS
MONROE         CLOUDY    78  76  93 S3        30.04R
TALLULAH       MOSUNNY   78  75  90 S3        30.05R

$$




USA.gov is the U.S. government's official web portal to all federal, state and local government web resources and services.